• Join FlightAware (Why Join?)
  • Login
  • US Flag GB Flag 
05:13 EDT


 

Airport Tracker/Info


-or-


 

Live Flight TrackerFlight Track Log ✈ UAL1116 ✈ 04-Nov-2012 ✈ KIAH - KORD

Flight Track Log - Related Links

Times and Time Zones

All times are in EST time to prevent confusion due to time zone crossing. See the UAL1116 flight status page for this flight to view local times or setup timezone preferences in your user account.

Time Position Orientation Groundspeed Altitude Reporting Facility
EST Latitude Longitude Course Direction KTS MPH feet Rate Location/Type
08:29 29.9776 -95.3000 81° East 170 196 400  Level FlightAware ADS-B
08:29 29.9782 -95.2955 72° East 172 198 600 2,400 Climbing FlightAware ADS-B
08:29 29.9793 -95.2915 63° Northeast 172 198 800 2,400 Climbing FlightAware ADS-B
08:29 29.9810 -95.2876 51° Northeast 172 198 1,000 1,980 Climbing FlightAware ADS-B
08:29 29.9831 -95.2846 41° Northeast 173 199 1,100 2,400 Climbing FlightAware ADS-B
08:29 29.9872 -95.2805 25° Northeast 175 201 1,400 2,160 Climbing FlightAware ADS-B
08:29 29.9903 -95.2788 17° North 181 208 1,500 1,080 Climbing FlightAware ADS-B
08:29 29.9952 -95.2771 12° North 185 213 1,600 1,320 Climbing FlightAware ADS-B
08:29 29.9985 -95.2763 359° North 192 221 1,700 1,800 Climbing FlightAware ADS-B
08:29 30.0046 -95.2764 357° North 201 231 1,900 1,560 Climbing FlightAware ADS-B
08:30 30.0203 -95.2773 356° North 225 259 2,300 2,280 Climbing FlightAware ADS-B
08:30 30.0364 -95.2787 356° North 239 275 3,100 2,520 Climbing FlightAware ADS-B
08:30 30.0513 -95.2800 354° North 254 292 3,500 1,980 Climbing FlightAware ADS-B
08:30 30.0608 -95.2811 350° North 258 297 3,800 2,280 Climbing FlightAware ADS-B
08:30 30.0670 -95.2823 347° North 260 299 4,000 2,400 Climbing FlightAware ADS-B
08:30 30.0726 -95.2838 342° North 261 300 4,200 3,180 Climbing FlightAware ADS-B
08:31 30.0821 -95.2874 337° Northwest 261 300 4,700 3,840 Climbing FlightAware ADS-B
08:31 30.0888 -95.2907 335° Northwest 261 300 5,100 3,600 Climbing FlightAware ADS-B
08:31 30.1044 -95.2992 333° Northwest 268 308 5,900 3,300 Climbing FlightAware ADS-B
08:31 30.1194 -95.3081 331° Northwest 272 313 6,600 3,420 Climbing FlightAware ADS-B
08:31 30.1253 -95.3119 327° Northwest 272 313 7,000 3,960 Climbing FlightAware ADS-B
08:31 30.1319 -95.3168 324° Northwest 272 313 7,400 3,540 Climbing FlightAware ADS-B
08:32 30.1481 -95.3304 324° Northwest 275 316 8,300 3,600 Climbing FlightAware ADS-B
08:32 30.1612 -95.3415 324° Northwest 278 320 9,100 3,420 Climbing FlightAware ADS-B
08:32 30.1774 -95.3550 324° Northwest 282 325 9,900 3,000 Climbing FlightAware ADS-B
08:32 30.2057 -95.3785 325° Northwest 296 341 11,200 2,640 Climbing FlightAware ADS-B
08:33 30.2414 -95.4077 324° Northwest 325 374 12,400 2,820 Climbing FlightAware ADS-B
08:33 30.2804 -95.4403 324° Northwest 336 387 14,100 3,540 Climbing FlightAware ADS-B
08:34 30.3196 -95.4728 324° Northwest 337 388 16,100 3,480 Climbing FlightAware ADS-B
08:34 30.3598 -95.5063 324° Northwest 346 398 17,700 3,060 Climbing FlightAware ADS-B
08:35 30.4032 -95.5424 325° Northwest 351 404 19,400 2,760 Climbing FlightAware ADS-B
08:36 30.4443 -95.5760 324° Northwest 367 422 20,700 2,640 Climbing FlightAware ADS-B
08:36 30.4861 -95.6109 324° Northwest 372 428 22,100 2,940 Climbing FlightAware ADS-B
08:36 30.5159 -95.6358 328° Northwest 372 428 23,200 2,880 Climbing FlightAware ADS-B
08:37 30.5416 -95.6542 334° Northwest 379 436 24,000 2,460 Climbing FlightAware ADS-B
08:37 30.5794 -95.6756 335° Northwest 389 448 24,900 2,400 Climbing FlightAware ADS-B
08:38 30.6291 -95.7022 335° Northwest 392 451 26,200 2,460 Climbing FlightAware ADS-B
08:38 30.6820 -95.7306 336° Northwest 396 456 27,500 2,400 Climbing FlightAware ADS-B
08:39 30.7323 -95.7572 335° Northwest 398 458 28,700 2,100 Climbing FlightAware ADS-B
08:39 30.7940 -95.7903 335° Northwest 403 464 29,900 1,860 Climbing FlightAware ADS-B
08:40 30.8460 -95.8183 335° Northwest 413 475 30,800 1,800 Climbing FlightAware ADS-B
08:40 30.8986 -95.8466 335° Northwest 416 479 31,700 1,860 Climbing FlightAware ADS-B
08:41 30.9514 -95.8750 335° Northwest 418 481 32,700 1,680 Climbing FlightAware ADS-B
08:41 31.0139 -95.9087 335° Northwest 423 487 33,600 1,560 Climbing FlightAware ADS-B
08:42 31.0678 -95.9377 336° Northwest 424 488 34,400 1,440 Climbing FlightAware ADS-B
08:42 31.1108 -95.9602 339° North 432 497 34,900 1,320 Climbing FlightAware ADS-B
08:43 31.1576 -95.9811 342° North 440 506 35,500 1,260 Climbing FlightAware ADS-B
08:43 31.2184 -96.0046 342° North 446 513 36,100 1,320 Climbing FlightAware ADS-B
08:44 31.2740 -96.0260 342° North 441 507 36,900 1,620 Climbing FlightAware
08:44 31.3114 -96.0405 342° North 441 507 37,400 1,320 Climbing FlightAware ADS-B
08:44 31.3726 -96.0642 342° North 441 507 38,000 1,200 Climbing FlightAware ADS-B
08:45 31.4333 -96.0879 342° North 440 506 38,700 960 Climbing FlightAware ADS-B
08:46 31.4934 -96.1114 342° North 438 504 39,000 660 Climbing FlightAware ADS-B
08:46 31.5511 -96.1339 342° North 437 503 39,400 900 Climbing FlightAware ADS-B
08:47 31.6086 -96.1564 342° North 437 503 39,900 960 Climbing FlightAware ADS-B
08:47 31.6676 -96.1794 342° North 436 502 40,400 840 Climbing FlightAware ADS-B
08:48 31.7267 -96.2025 342° North 437 503 40,800 540 Climbing FlightAware ADS-B
08:48 31.7869 -96.2261 341° North 436 502 41,000 180 Climbing FlightAware ADS-B
08:49 31.8420 -96.2480 343° North 436 502 41,000  Level FlightAware
08:49 31.8509 -96.2512 341° North 438 504 41,000  Level FlightAware ADS-B
08:49 31.9091 -96.2742 341° North 440 506 41,000  Level FlightAware ADS-B
08:50 31.9737 -96.2998 342° North 442 509 41,000  Level FlightAware ADS-B
08:50 32.0332 -96.3231 342° North 442 509 41,000  Level FlightAware ADS-B
08:51 32.0912 -96.3460 341° North 441 507 41,000  Level FlightAware ADS-B
08:51 32.1584 -96.3731 347° North 439 505 41,000  Level FlightAware ADS-B
08:52 32.2289 -96.3925 North 465 535 41,000  Level FlightAware ADS-B
08:52 32.2754 -96.3843 21° North 490 564 41,000  Level FlightAware ADS-B
08:52 32.3079 -96.3696 18° North 505 581 41,000  Level FlightAware ADS-B
08:53 32.3734 -96.3441 12° North 494 568 41,000  Level FlightAware ADS-B
08:53 32.4189 -96.3330 North 484 557 41,000  Level FlightAware ADS-B
08:54 32.5150 -96.3190 North 483 556 41,000  Level FlightAware
08:54 32.5459 -96.3147 North 483 556 41,000  Level FlightAware ADS-B
08:55 32.6252 -96.3037 North 482 555 41,000  Level FlightAware ADS-B
08:56 32.7040 -96.2930 North 478 550 41,000  Level FlightAware
08:56 32.7930 -96.2810 North 477 549 41,000  Level FlightAware
08:57 32.8940 -96.2670 North 477 549 41,000  Level FlightAware
08:58 32.9720 -96.2560 North 474 545 41,000  Level FlightAware
08:58 33.0660 -96.2430 North 473 544 41,000  Level FlightAware
08:59 33.1640 -96.2300 North 475 547 41,000  Level FlightAware
09:00 33.2353 -96.2196 North 475 547 41,000  Level FlightAware ADS-B
09:00 33.3490 -96.2040 North 472 543 41,000  Level FlightAware
09:01 33.4480 -96.1900 North 472 543 41,000  Level FlightAware
09:02 33.5330 -96.1780 North 473 544 41,000  Level FlightAware
09:03 33.6290 -96.1640 North 473 544 41,000  Level FlightAware
09:03 33.7200 -96.1510 North 475 547 41,000  Level FlightAware
09:04 33.8080 -96.1390 North 475 547 41,000  Level FlightAware
09:05 33.9030 -96.1260 North 474 545 41,000  Level FlightAware
09:05 33.9920 -96.1130 North 471 542 41,000  Level FlightAware
09:06 34.0780 -96.1010 North 471 542 41,000  Level FlightAware
09:07 34.1640 -96.0890 North 471 542 41,000  Level FlightAware
09:07 34.2640 -96.0740 North 469 540 41,000  Level FlightAware
09:08 34.3460 -96.0620 North 469 540 41,000  Level FlightAware
09:09 34.4430 -96.0480 North 469 540 41,000  Level FlightAware
09:10 34.5320 -96.0360 North 470 541 41,000  Level FlightAware
09:10 34.6160 -96.0240 North 471 542 41,000  Level FlightAware
09:11 34.7180 -96.0090 North 471 542 41,000  Level FlightAware
09:12 34.8040 -95.9960 North 470 541 41,000  Level FlightAware
09:12 34.8910 -95.9840 North 473 544 41,000  Level FlightAware
09:13 34.9870 -95.9700 North 471 542 41,000  Level FlightAware
09:14 35.0730 -95.9570 North 470 541 41,000  Level FlightAware
09:14 35.0920 -95.9540 North 470 541 41,000  Level FlightAware
09:15 35.2570 -95.9300 North 468 539 41,000  Level FlightAware
09:16 35.3530 -95.9160 North 467 537 41,000  Level FlightAware
09:17 35.4320 -95.9040 North 466 536 41,000  Level FlightAware
09:17 35.5360 -95.8890 North 465 535 41,000  Level FlightAware
09:18 35.6130 -95.8780 North 467 537 41,000  Level FlightAware
09:19 35.6950 -95.8670 45° Northeast 467 537 41,000  Level FlightAware
09:19 35.7760 -95.7660 44° Northeast 497 572 41,000  Level FlightAware
09:20 35.8330 -95.6990 44° Northeast 497 572 41,000  Level FlightAware
09:21 35.8890 -95.6320 46° Northeast 497 572 41,000  Level FlightAware
09:21 35.9790 -95.5160 45° Northeast 498 573 41,000  Level FlightAware
09:22 36.0340 -95.4470 44° Northeast 498 573 41,000  Level FlightAware
09:23 36.0900 -95.3790 45° Northeast 498 573 41,000  Level FlightAware
09:24 36.1450 -95.3100 45° Northeast 498 573 41,000  Level FlightAware
09:24 36.2000 -95.2420 45° Northeast 498 573 41,000  Level FlightAware
09:25 36.2700 -95.1560 45° Northeast 498 573 41,000  Level FlightAware
09:26 36.3250 -95.0870 45° Northeast 498 573 41,000  Level FlightAware
09:26 36.4333 -94.9500 46° Northeast 492 566 41,000  Level Kansas City Center
09:27 36.5317 -94.8239 45° Northeast 492 566 41,000  Level Kansas City Center
09:28 36.6300 -94.7028 46° Northeast 492 566 41,000  Level Kansas City Center
09:29 36.7283 -94.5761 47° Northeast 492 566 41,000  Level Kansas City Center
09:30 36.8242 -94.4489 53° Northeast 492 566 41,000  Level Kansas City Center
09:31 36.9075 -94.3114 55° Northeast 492 566 41,000  Level Kansas City Center
09:32 36.9886 -94.1656 55° Northeast 498 573 41,000  Level Kansas City Center
09:33 37.0694 -94.0219 57° Northeast 504 580 41,000  Level Kansas City Center
09:34 37.1314 -93.9042 51° Northeast 504 580 41,000  Level Kansas City Center
09:35 37.2244 -93.7575 57° Northeast 496 571 41,000  Level Kansas City Center
09:36 37.3008 -93.6106 54° Northeast 501 577 41,000  Level Kansas City Center
09:37 37.3831 -93.4683 55° Northeast 501 577 41,000  Level Kansas City Center
09:38 37.4608 -93.3261 56° Northeast 496 571 41,000  Level Kansas City Center
09:39 37.5386 -93.1781 56° Northeast 501 577 41,000  Level Kansas City Center
09:40 37.6183 -93.0300 55° Northeast 501 577 41,000  Level Kansas City Center
09:41 37.6956 -92.8894 56° Northeast 501 577 41,000  Level Kansas City Center
09:42 37.7750 -92.7406 56° Northeast 501 577 41,000  Level Kansas City Center
09:43 37.8539 -92.5939 50° Northeast 501 577 41,000  Level Kansas City Center
09:44 37.9517 -92.4467 30° Northeast 501 577 41,000  Level Kansas City Center
09:45 38.0731 -92.3589 32° Northeast 484 557 41,000  Level Kansas City Center
09:46 38.1883 -92.2683 31° Northeast 489 563 41,000  Level Kansas City Center
09:47 38.3056 -92.1800 31° Northeast 489 563 41,000  Level Kansas City Center
09:48 38.4225 -92.0889 31° Northeast 484 557 41,000  Level Kansas City Center
09:49 38.5375 -92.0003 31° Northeast 479 551 41,000  Level Kansas City Center
09:50 38.6544 -91.9086 30° Northeast 479 551 41,000  Level Kansas City Center
09:51 38.7692 -91.8219 31° Northeast 479 551 41,000  Level Kansas City Center
09:52 38.8861 -91.7322 31° Northeast 479 551 41,000  Level Kansas City Center
09:53 38.9967 -91.6453 31° Northeast 479 551 41,000  Level Kansas City Center
09:54 39.1131 -91.5550 32° Northeast 479 551 41,000  Level Kansas City Center
09:55 39.2256 -91.4647 31° Northeast 479 551 41,000  Level Kansas City Center
09:56 39.3400 -91.3742 32° Northeast 479 551 41,000 -120 Level Kansas City Center
09:57 39.4419 -91.2917 32° Northeast 479 551 40,800 -600 Descending Kansas City Center
09:58 39.5706 -91.1889 32° Northeast 485 558 39,800 -960 Descending Kansas City Center
09:59 39.6783 -91.1003 35° Northeast 475 547 38,900 -900 Descending Kansas City Center
10:00 39.7881 -91.0006 38° Northeast 475 547 38,100 -840 Descending Kansas City Center
10:02 39.9856 -90.8022 38° Northeast 453 521 36,400 -840 Descending Chicago Center
10:03 40.0828 -90.7039 37° Northeast 453 521 35,600 -1,380 Descending Chicago Center
10:04 40.1756 -90.6108 39° Northeast 443 510 33,700 -1,320 Descending Chicago Center
10:05 40.2619 -90.5197 38° Northeast 423 487 33,000 -360 Descending Chicago Center
10:06 40.3547 -90.4261 38° Northeast 416 479 33,000  Level Chicago Center
10:07 40.4472 -90.3322 39° Northeast 416 479 33,000  Level Chicago Center
10:08 40.5439 -90.2297 38° Northeast 416 479 33,000 -300 Level Chicago Center
10:09 40.6322 -90.1378 37° Northeast 408 470 32,500 -900 Descending Chicago Center
10:10 40.7244 -90.0458 38° Northeast 408 470 31,200 -1,380 Descending Chicago Center
10:11 40.8125 -89.9561 41° Northeast 402 463 29,800 -1,440 Descending Chicago Center
10:12 40.8903 -89.8664 37° Northeast 394 453 28,400 -1,380 Descending Chicago Center
10:13 40.9761 -89.7817 38° Northeast 378 435 27,100 -1,320 Descending Chicago Center
10:14 41.0575 -89.6969 39° Northeast 373 429 25,800 -1,320 Descending Chicago Center
10:15 41.1369 -89.6119 54° Northeast 373 429 24,500 -900 Descending Chicago Center
10:16 41.1956 -89.5044 61° Northeast 357 411 24,000 -900 Descending Chicago Center
10:17 41.2436 -89.3886 62° Northeast 343 395 22,800 -1,380 Descending Chicago Center
10:18 41.2894 -89.2753 64° Northeast 343 395 21,300 -2,100 Descending Chicago Center
10:19 41.3289 -89.1675 60° Northeast 336 387 18,600 -2,400 Descending Chicago Center
10:20 41.3725 -89.0650 62° Northeast 326 375 16,500 -1,920 Descending Chicago Center
10:22 41.4390 -88.8940 60° Northeast 13,500 -1,800 Descending FlightAware
10:22 41.4580 -88.8500 54° Northeast 308 354 13,000 -1,020 Descending FlightAware
10:23 41.4910 -88.7900 53° Northeast 298 343 12,400 -960 Descending FlightAware
10:24 41.5250 -88.7290 52° Northeast 296 341 11,700 -1,080 Descending FlightAware
10:24 41.5590 -88.6700 53° Northeast 290 334 10,900 -720 Descending FlightAware
10:25 41.5960 -88.6040 52° Northeast 290 334 10,700 -180 Descending FlightAware
10:26 41.6280 -88.5490 53° Northeast 288 331 10,700 -660 Level FlightAware
10:26 41.6640 -88.4840 53° Northeast 285 328 9,800 -1,200 Descending FlightAware
10:27 41.6850 -88.4470 54° Northeast 282 325 9,300 -1,560 Descending FlightAware
10:27 41.7020 -88.4160 53° Northeast 276 318 8,500 -1,620 Descending FlightAware
10:28 41.7190 -88.3860 52° Northeast 277 319 8,100 -840 Descending FlightAware
10:28 41.7380 -88.3530 39° Northeast 263 303 7,900 -600 Descending FlightAware
10:28 41.7510 -88.3390 23° Northeast 255 293 7,700 -1,020 Descending FlightAware
10:28 41.7670 -88.3300 20° North 252 290 7,400 -1,200 Descending FlightAware
10:29 41.7940 -88.3170 20° North 251 289 6,900 -1,080 Descending FlightAware
10:29 41.8020 -88.3130 21° North 249 287 6,800 -1,380 Descending FlightAware
10:30 41.8400 -88.2930 21° North 220 253 5,900 -1,500 Descending FlightAware
10:30 41.8630 -88.2810 22° Northeast 215 247 5,300 -1,200 Descending FlightAware
10:31 41.8910 -88.2660 19° North 211 243 4,800 -1,140 Descending FlightAware
10:31 41.9150 -88.2550 24° Northeast 206 237 4,300 -1,140 Descending FlightAware
10:31 41.9370 -88.2420 67° East 201 231 3,800 -300 Descending FlightAware
10:32 41.9500 -88.2000 73° East 207 238 4,000 -120 Climbing Chicago TRACON
10:33 41.9690 -88.1170 95° East 180 207 3,600 -540 Descending FlightAware
10:34 41.9670 -88.0850 88° East 170 196 3,100 -1,320 Descending FlightAware
10:34 41.9680 -88.0530 86° East 155 178 2,300 -1,320 Descending FlightAware
10:35 41.9690 -88.0310 90° East 146 168 1,900 -900 Descending FlightAware
10:35 41.9690 -88.0040 90° East 144 166 1,500 -780 Descending FlightAware
10:36 41.9690 -87.9810 90° East 144 166 1,200 -780 Descending FlightAware
10:36 41.9690 -87.9690 90° East 145 167 1,000 -780 Descending FlightAware
10:36 41.9690 -87.9480 90° East 145 167 700 -720 Descending FlightAware